Total_Precipitation_Accumulation
1.71 1.85 1.76 1.71 1.72 1.77 1.84 1.90 1.91 1.78 1.51 1.11 0.97 0.92 0.94 1.02 1.31 1.16 1.01 1.00 0.90 0.83 0.75 0.67 0.63 0.65 0.81 1.00 1.24 1.46 1.60 1.70 1.75 1.72 1.65 1.61 1.67 1.73
1.50 1.63 1.74 1.76 1.79 1.79 1.84 1.85 1.80 1.77 1.68 1.29 1.04 0.87 0.93 0.91 1.14 0.95 1.05 1.21 0.99 0.82 0.72 0.67 0.63 0.62 0.62 0.71 0.78 0.84 0.88 0.93 1.05 1.22 1.26 1.22 1.22 1.27
1.31 1.34 1.51 1.63 1.74 1.79 1.80 1.79 1.83 1.78 1.66 1.44 1.13 0.95 1.03 1.05 1.12 0.98 0.97 1.02 0.93 0.88 0.79 0.70 0.63 0.61 0.58 0.61 0.62 0.59 0.60 0.61 0.66 0.80 0.91 0.90 0.88 0.89
1.18 1.24 1.31 1.33 1.42 1.57 1.68 1.67 1.75 1.79 1.75 1.64 1.35 1.11 1.09 1.15 1.29 1.30 1.21 1.13 1.10 1.17 1.11 0.93 0.77 0.69 0.66 0.64 0.61 0.57 0.53 0.54 0.53 0.58 0.68 0.81 0.91 0.89
1.02 1.07 1.11 1.18 1.29 1.32 1.40 1.49 1.57 1.63 1.72 1.65 1.55 1.42 1.25 1.19 1.25 1.25 1.32 1.47 1.41 1.38 1.42 1.25 1.02 0.86 0.77 0.73 0.69 0.63 0.58 0.57 0.55 0.54 0.55 0.62 0.73 0.83
0.92 0.99 1.02 1.05 1.14 1.21 1.22 1.35 1.47 1.56 1.58 1.55 1.49 1.43 1.37 1.34 1.35 1.32 1.38 1.52 1.60 1.49 1.45 1.37 1.27 1.14 0.98 0.87 0.77 0.71 0.67 0.63 0.62 0.59 0.57 0.59 0.65 0.71
0.83 0.86 0.89 0.84 0.87 0.94 0.94 1.11 1.27 1.45 1.52 1.56 1.47 1.36 1.31 1.32 1.32 1.33 1.39 1.56 1.60 1.65 1.63 1.50 1.36 1.19 1.07 0.97 0.86 0.80 0.76 0.69 0.66 0.65 0.65 0.63 0.66 0.73
0.73 0.76 0.83 0.85 0.80 0.75 0.74 0.82 0.95 1.08 1.26 1.38 1.42 1.34 1.28 1.25 1.34 1.45 1.46 1.54 1.64 1.58 1.50 1.57 1.50 1.38 1.21 1.02 1.03 1.00 0.90 0.80 0.72 0.69 0.67 0.65 0.65 0.70
0.56 0.68 0.80 0.86 0.88 0.90 0.79 0.77 0.78 0.82 0.92 1.09 1.22 1.23 1.22 1.24 1.30 1.39 1.47 1.51 1.43 1.48 1.43 1.51 1.50 1.37 1.22 1.15 1.20 1.07 1.00 0.93 0.88 0.81 0.76 0.73 0.72 0.75
0.49 0.59 0.75 0.86 0.88 0.91 0.86 0.92 0.90 0.79 0.77 0.84 1.03 1.11 1.11 1.23 1.36 1.47 1.59 1.58 1.52 1.51 1.44 1.46 1.41 1.27 1.16 1.15 1.23 1.09 0.99 0.93 0.90 0.89 0.86 0.82 0.82 0.85
0.45 0.53 0.68 0.77 0.87 0.88 0.86 0.96 0.96 0.78 0.71 0.81 0.86 0.93 1.01 1.13 1.31 1.45 1.54 1.56 1.54 1.51 1.36 1.23 1.18 1.23 1.23 1.16 1.14 1.12 1.01 0.91 0.83 0.80 0.79 0.78 0.80 0.90
0.47 0.51 0.70 0.75 0.78 0.75 0.78 0.98 1.07 0.94 0.71 0.69 0.76 0.89 0.97 1.10 1.32 1.46 1.68 1.69 1.49 1.46 1.35 1.21 1.20 1.28 1.41 1.32 1.13 1.03 0.96 0.97 0.92 0.87 0.84 0.84 0.92 0.91
0.35 0.41 0.43 0.54 0.57 0.62 0.73 0.84 0.94 0.84 0.76 0.84 0.93 0.96 1.03 1.09 1.18 1.31 1.53 1.70 1.64 1.43 1.31 1.32 1.29 1.28 1.26 1.22 1.16 1.05 0.94 0.92 0.90 0.88 0.92 0.95 1.01 0.99
0.26 0.30 0.34 0.45 0.49 0.54 0.61 0.66 0.69 0.74 0.80 0.94 0.96 0.88 0.92 0.98 0.99 1.08 1.25 1.39 1.30 1.25 1.16 1.11 1.12 1.08 1.03 0.97 0.96 1.01 1.01 0.95 0.91 0.90 0.88 1.03 1.09 1.11
0.21 0.27 0.29 0.37 0.37 0.43 0.51 0.52 0.60 0.82 0.95 0.90 0.87 0.84 0.82 0.85 0.84 0.95 1.15 1.29 1.25 1.08 1.00 0.94 0.94 0.95 0.93 0.88 0.83 0.81 0.87 0.90 0.85 0.86 0.89 0.89 0.89 0.98
0.25 0.28 0.30 0.36 0.37 0.40 0.46 0.55 0.66 0.83 0.97 0.84 0.72 0.72 0.73 0.81 0.88 0.86 0.95 1.05 1.19 1.18 1.06 0.99 0.95 0.95 0.93 0.84 0.82 0.78 0.72 0.74 0.79 0.85 0.89 0.89 0.87 0.85
0.28 0.36 0.47 0.56 0.55 0.55 0.61 0.65 0.68 0.69 0.75 0.70 0.69 0.74 0.78 0.80 0.85 0.86 0.87 0.88 0.91 0.96 1.00 0.98 0.95 0.96 0.98 0.94 0.87 0.78 0.75 0.70 0.73 0.85 0.96 0.99 0.93 0.90
0.38 0.42 0.54 0.68 0.72 0.74 0.76 0.76 0.78 0.73 0.74 0.70 0.72 0.74 0.73 0.72 0.74 0.80 0.88 0.94 0.88 0.80 0.77 0.76 0.79 0.87 0.95 0.98 0.89 0.78 0.78 0.79 0.79 0.81 0.84 0.88 0.88 0.86
0.41 0.45 0.62 0.68 0.67 0.70 0.77 0.81 0.75 0.65 0.66 0.65 0.61 0.59 0.57 0.55 0.58 0.63 0.72 0.79 0.80 0.76 0.73 0.71 0.73 0.78 0.81 0.78 0.75 0.67 0.69 0.76 0.84 0.84 0.79 0.76 0.73 0.72
0.47 0.62 0.78 0.82 0.76 0.70 0.67 0.63 0.56 0.52 0.51 0.49 0.48 0.48 0.50 0.51 0.52 0.53 0.56 0.60 0.65 0.68 0.73 0.75 0.77 0.78 0.79 0.77 0.71 0.64 0.61 0.67 0.74 0.80 0.79 0.79 0.81 0.85
0.46 0.58 0.68 0.77 0.72 0.58 0.49 0.46 0.43 0.43 0.42 0.42 0.45 0.49 0.49 0.51 0.52 0.54 0.55 0.58 0.60 0.62 0.65 0.67 0.71 0.84 0.88 0.90 0.84 0.68 0.63 0.70 0.77 0.78 0.78 0.81 0.83 0.81
0.35 0.38 0.41 0.43 0.41 0.38 0.38 0.38 0.38 0.41 0.43 0.44 0.46 0.48 0.52 0.56 0.56 0.54 0.55 0.56 0.57 0.57 0.58 0.60 0.68 0.80 0.87 0.90 0.83 0.71 0.63 0.64 0.75 0.84 0.84 0.83 0.80 0.75
0.34 0.35 0.36 0.36 0.36 0.36 0.36 0.36 0.38 0.40 0.43 0.45 0.48 0.51 0.52 0.53 0.57 0.57 0.56 0.57 0.57 0.57 0.59 0.61 0.65 0.74 0.82 0.84 0.82 0.74 0.69 0.66 0.67 0.69 0.70 0.76 0.75 0.69